Weather History for Paganella, Italy

Change the Weather History Date:

Tuesday, August 20, 2013

  Actual Average Record
Temperature  
Mean Temperature 44 °F -  
Max Temperature 50 °F 52 °F 70 °F (2012)
Min Temperature 39 °F 41 °F 37 °F (2007)
Degree Days  
Heating Degree Days 20    
Moisture  
Dew Point 32 °F    
Average Humidity 66    
Maximum Humidity 100    
Minimum Humidity 38    
Precipitation  
Precipitation 0.00 in 0.12 in - ()
Sea Level Pressure  
Sea Level Pressure 30.25 in    
Wind  
Wind Speed 18 mph ()    
Max Wind Speed 32 mph    
Max Gust Speed -    
Visibility 6.0 miles    
Events Fog , Rain    
Averages and records for this station are not official NWS values.
T = Trace of Precipitation, MM = Missing Value Source: Averaged Metar Reports

Daily Weather History Graph

Daily Weather History Graph

Search for Another Location

Airport:

Trip Planner

Search our weather history database for the weather conditions in past years. The results will help you decide how hot, cold, wet, or windy it might be!

Date:

Astronomy

Aug. 20, 2013 Rise Set
Actual Time 6:21 AM CEST 8:16 PM CEST
Civil Twilight 5:49 AM CEST 8:48 PM CEST
Nautical Twilight 5:09 AM CEST 9:27 PM CEST
Astronomical Twilight 4:26 AM CEST 10:10 PM CEST
Moon 7:34 PM CEST (8/20) 5:31 AM CEST (8/20)
Length of Visible Light 14h 59m
Length of Day
13h 54m
Waxing Gibbous, 99% of the Moon is Illuminated
Aug 20
Waxing Gibbous
Aug 21
Full
Aug 28
Last Quarter
Sep 5
New
Sep 12
First Quarter

Hourly Weather History & Observations

Time (CEST) Temp. Windchill Dew Point Humidity Pressure Visibility Wind Dir Wind Speed Gust Speed Precip Events Conditions
12:55 AM 41.0 °F 33.9 °F 41.0 °F 100% 30.21 in 0.4 mi North 12.7 mph - N/A Fog , Rain Light Rain
1:55 AM 39.2 °F 28.0 °F 39.2 °F 100% 30.18 in 6.2 mi North 26.5 mph - N/A   Partly Cloudy
2:00 AM 40 °F - 40 °F 100%  in 9 mi North 26.5 mph - - Fog Light Fog
2:55 AM 39.2 °F 27.6 °F 37.4 °F 93% 30.18 in 6.2 mi North 28.8 mph - N/A   Partly Cloudy
3:55 AM 39.2 °F 28.0 °F 37.4 °F 93% 30.18 in 6.2 mi North 26.5 mph - N/A   Partly Cloudy
4:55 AM 39.2 °F 27.4 °F 33.8 °F 81% 30.18 in 6.2 mi North 29.9 mph - N/A   Partly Cloudy
5:55 AM 39.2 °F 27.0 °F 33.8 °F 81% 30.18 in 6.2 mi North 32.2 mph - N/A   Scattered Clouds
6:55 AM 39.2 °F 29.3 °F 32.0 °F 75% 30.21 in 6.2 mi North 20.7 mph - N/A   Partly Cloudy
7:55 AM 39.2 °F 28.3 °F 32.0 °F 75% 30.21 in 6.2 mi North 25.3 mph - N/A   Partly Cloudy
8:00 AM 39 °F - 32 °F 69%  in 47 mi North 25.3 mph - -   Scattered Clouds
8:55 AM 39.2 °F 28.0 °F 30.2 °F 70% 30.24 in 6.2 mi North 26.5 mph - N/A   Partly Cloudy
9:55 AM 41.0 °F 30.0 °F 30.2 °F 65% 30.24 in - North 28.8 mph - N/A   Clear
10:55 AM 41.0 °F 31.1 °F 30.2 °F 65% 30.24 in 6.2 mi North 23.0 mph - N/A   Partly Cloudy
11:00 AM 42 °F - 30 °F 52%  in 47 mi North 23.0 mph - -   Scattered Clouds
11:55 AM 42.8 °F 34.0 °F 32.0 °F 66% 30.24 in 6.2 mi North 20.7 mph - N/A   Partly Cloudy
12:55 PM 44.6 °F 38.1 °F 33.8 °F 66% 30.27 in 6.2 mi NNE 13.8 mph - N/A   Partly Cloudy
1:55 PM 48.2 °F - 35.6 °F 62% 30.27 in 6.2 mi Variable 3.5 mph - N/A   Partly Cloudy
2:00 PM 47 °F - 35 °F 52%  in 44 mi 3.5 mph - -   Scattered Clouds
2:55 PM 50.0 °F - 33.8 °F 54% 30.27 in 6.2 mi North 10.4 mph - N/A   Partly Cloudy
3:55 PM 48.2 °F - 32.0 °F 54% 30.27 in 6.2 mi NNE 5.8 mph - N/A   Partly Cloudy
4:55 PM 48.2 °F - 30.2 °F 50% 30.27 in 6.2 mi NNE 9.2 mph - N/A   Partly Cloudy
5:00 PM 48 °F - 30 °F 38%  in 44 mi NNE 9.2 mph - -   Scattered Clouds
5:55 PM 48.2 °F - 30.2 °F 50% 30.27 in 6.2 mi North 6.9 mph - N/A   Partly Cloudy
6:55 PM 48.2 °F - 28.4 °F 46% 30.27 in 6.2 mi NNE 11.5 mph - N/A   Partly Cloudy
7:55 PM 46.4 °F 41.9 °F 28.4 °F 50% 30.30 in - North 9.2 mph - N/A   Clear
8:55 PM 42.8 °F 36.6 °F 28.4 °F 57% 30.30 in - NNE 11.5 mph - N/A   Clear
9:55 PM 42.8 °F 34.8 °F 26.6 °F 53% 30.33 in - North 17.3 mph - N/A   Clear
10:55 PM 41.0 °F 31.1 °F 26.6 °F 57% 30.30 in - North 23.0 mph - N/A   Clear
11:00 PM 42 °F - 27 °F 42%  in 31 mi North 23.0 mph - -  
11:55 PM 41.0 °F 31.6 °F 26.6 °F 57% 30.30 in - North 20.7 mph - N/A   Clear